Temperature
15 16 16 16 20 21 22 22 22 21 21 20 19 20 22 22 22 21 16 16 16 16 15 15 15 15 15 15 15 15 15 15 15 15 15 15 15 14 14 14 14 14 14 14 14 14 14 14 14
15 15 16 18 20 21 22 21 21 21 20 18 18 19 20 20 18 16 16 16 15 15 15 15 15 15 15 15 15 15 15 15 15 15 14 14 14 14 14 14 14 14 14 14 14 14 14 14 14
15 15 16 19 20 21 22 21 21 20 18 18 19 19 19 19 16 15 15 16 15 15 15 15 15 15 15 15 15 15 15 14 14 14 14 14 14 14 14 14 14 14 14 14 14 14 14 14 14
14 15 16 19 20 20 20 20 19 19 18 17 18 19 17 15 15 15 16 15 15 15 15 15 15 15 15 14 14 14 14 14 14 14 14 14 14 14 14 14 14 14 14 14 14 14 14 14 14
14 16 18 18 19 19 19 18 18 19 19 18 18 19 18 15 15 15 15 15 14 14 14 14 15 15 14 14 14 14 14 14 14 14 14 14 14 14 14 14 14 14 13 13 14 14 14 13 13
14 16 18 19 19 18 18 17 17 18 19 17 17 19 17 15 15 15 15 14 14 14 14 14 14 14 14 14 14 14 14 14 14 14 14 14 14 14 14 14 14 13 13 13 13 13 13 13 13
15 16 17 18 18 18 17 16 17 18 18 17 17 18 17 14 14 14 14 14 13 14 14 14 14 14 14 14 14 14 14 14 14 14 14 14 14 14 14 14 13 13 13 13 13 13 13 13 13
13 16 16 17 17 18 16 15 15 16 17 15 15 17 17 14 14 14 13 13 13 13 13 14 14 14 14 14 14 14 14 14 14 13 14 14 13 13 13 13 13 13 13 13 13 13 13 13 13
12 15 16 17 17 17 15 15 14 13 14 14 14 14 13 13 13 13 13 13 13 13 13 13 13 13 13 14 14 14 13 13 13 13 13 13 13 13 13 13 13 13 13 13 13 13 13 13 13
13 14 16 15 15 15 14 14 14 14 15 15 14 13 13 13 13 13 13 13 13 13 13 13 13 13 13 13 13 13 13 13 13 13 13 13 13 12 12 12 12 12 12 12 12 12 12 12 12
12 13 13 12 12 12 12 13 12 14 15 15 14 13 12 12 12 12 12 12 12 12 13 13 13 13 13 13 13 13 13 13 13 13 13 12 12 12 12 12 12 12 12 12 12 12 12 12 12
11 11 11 11 10 10 11 12 12 13 14 13 12 12 11 12 12 12 12 12 12 12 12 12 12 12 12 12 12 12 12 12 12 12 12 12 12 12 12 12 12 12 12 12 12 12 12 12 12
11 10 9 9 9 9 10 11 12 12 12 11 11 11 11 11 11 11 11 11 11 12 12 12 12 12 12 12 12 12 12 12 12 12 12 12 12 12 12 12 11 11 11 11 11 11 11 11 11
9 9 9 9 9 9 10 11 11 12 11 11 11 11 11 11 11 11 11 11 11 12 12 12 12 12 12 12 12 12 12 12 12 12 12 12 12 12 12 11 11 11 11 11 11 11 11 11 11
8 9 10 10 9 9 10 11 12 11 11 11 11 10 10 10 10 10 11 11 11 11 11 11 11 11 11 11 11 11 11 11 11 11 11 11 11 11 11 11 11 11 11 11 11 11 11 11 11
9 10 10 10 10 9 10 12 13 11 10 11 11 10 10 10 10 10 10 10 10 10 11 11 11 11 11 11 11 11 11 11 11 11 11 11 11 11 11 11 11 11 11 10 10 10 10 10 10
9 10 10 10 9 9 9 11 12 10 10 10 10 10 10 10 10 10 10 10 10 10 10 11 11 11 11 11 11 10 10 10 10 11 11 11 11 11 10 10 10 10 10 10 10 10 10 10 10
9 10 9 10 9 9 9 10 11 10 10 10 10 10 10 9 9 9 10 10 10 10 10 10 10 10 10 10 10 10 10 10 10 10 10 10 10 10 10 10 10 10 10 10 10 10 10 10 10
8 8 9 9 8 8 9 10 11 11 10 10 10 10 10 9 9 9 9 9 9 9 9 10 10 10 10 10 10 10 10 10 10 10 10 10 10 10 10 10 10 10 10 10 10 9 9 9 9
7 7 8 8 8 8 8 9 10 10 10 9 9 9 9 9 9 9 8 8 9 9 9 10 10 9 10 10 10 10 10 9 9 9 9 9 9 9 9 9 9 9 9 9 9 9 9 9 9
7 7 8 7 7 7 7 9 10 10 9 9 9 8 8 8 8 8 8 8 8 8 9 9 9 9 9 9 9 9 9 9 9 9 9 9 9 9 9 9 9 9 9 9 9 9 9 9 9
7 7 7 6 7 8 7 9 11 10 10 9 9 9 8 8 8 8 7 8 8 8 8 8 9 9 9 9 9 9 9 9 9 9 9 9 9 9 9 9 9 9 9 9 9 8 8 9 8
7 6 6 6 6 6 7 7 10 9 9 9 9 8 8 7 7 7 7 7 7 7 7 8 8 8 8 8 8 8 8 8 8 9 8 8 8 8 8 8 8 8 8 8 8 8 8 8 8
6 6 6 6 6 6 7 7 10 10 9 9 9 8 7 7 6 7 7 7 7 7 7 7 8 8 8 8 8 8 8 8 8 8 8 8 8 8 8 8 8 8 8 8 8 8 8 8 8
6 6 7 7 7 8 7 7 9 9 8 8 7 7 6 6 6 6 6 6 6 6 6 7 7 7 7 7 7 8 8 8 8 8 8 8 8 8 8 8 8 8 8 8 7 7 7 7 7
5 6 7 7 8 8 6 7 9 8 7 6 5 5 5 5 5 5 5 5 5 6 6 6 6 6 7 7 7 7 7 7 7 7 7 7 7 7 8 8 8 7 7 7 7 7 7 7 7
5 5 5 6 5 6 8 8 8 7 7 6 5 5 5 4 4 4 4 4 5 5 5 6 6 6 6 7 7 7 7 7 7 7 7 7 7 7 7 7 7 7 7 7 7 7 7 7 7
5 5 5 5 6 7 8 8 9 7 7 6 5 5 4 3 3 3 4 4 4 4 5 5 5 5 6 6 6 6 6 6 6 7 7 7 7 7 7 7 7 7 7 7 7 6 6 6 6
4 4 4 5 5 7 8 9 7 6 6 5 5 4 3 3 3 3 3 3 4 4 4 4 5 5 5 5 6 6 6 6 6 6 6 6 6 6 6 6 6 6 6 6 6 6 6 6 6
4 4 4 5 5 5 6 7 6 5 5 4 4 3 2 2 2 2 2 3 3 3 3 4 4 4 4 5 5 5 6 6 6 6 6 6 6 6 6 6 6 6 6 6 6 6 6 6 6
Wind_Speed
8 5 2 3 4 6 11 8 6 6 5 3 2 4 4 4 2 1 3 3 5 8 10 12 11 11 11 11 11 12 13 13 13 13 12 12 12 12 11 11 11 10 10 10 11 11 11 11 11
6 3 3 4 7 11 11 10 10 7 3 2 3 4 4 3 1 2 2 3 6 8 10 11 12 11 11 11 11 11 12 12 12 13 12 11 11 11 11 11 10 10 10 10 10 11 11 11 11
3 2 3 5 9 13 10 7 8 6 4 4 3 3 3 1 1 1 2 5 7 8 9 10 11 11 11 11 11 11 11 11 12 12 12 11 11 11 10 10 10 9 10 10 10 10 10 11 10
2 3 4 8 14 12 9 6 4 5 5 4 4 3 2 2 1 2 3 6 8 7 8 10 10 11 11 11 11 11 10 11 11 11 11 10 10 10 10 10 9 9 10 10 9 10 10 10 10
2 4 7 11 15 11 8 6 5 6 5 4 5 4 3 2 2 2 4 6 7 7 7 10 10 11 11 10 10 10 11 11 10 10 10 10 9 10 10 10 9 9 9 9 9 10 10 9 9
4 4 9 14 15 11 8 7 7 8 7 5 5 5 3 2 1 1 4 6 6 6 6 9 10 10 11 11 10 10 11 11 11 10 10 10 9 10 10 9 9 9 9 9 9 9 9 8 8
5 6 11 14 13 12 8 6 8 9 9 6 4 5 3 2 1 1 4 5 5 5 5 7 9 9 11 11 10 10 10 10 11 10 9 9 9 9 9 9 9 9 9 9 9 9 8 8 7
3 4 8 11 13 11 6 6 5 8 8 3 4 6 3 0 0 2 4 4 5 5 5 5 7 8 10 10 10 10 10 10 10 10 10 9 9 9 9 9 9 8 8 8 8 8 8 8 7
3 6 11 12 10 8 5 6 5 4 5 4 3 3 2 1 2 3 3 4 4 4 5 5 6 7 9 10 10 10 10 10 10 10 10 10 9 9 8 8 8 8 8 8 8 8 7 7 7
5 9 11 6 5 5 5 6 5 6 8 7 6 3 1 2 4 4 5 6 6 6 6 5 6 6 8 8 9 9 9 10 9 9 10 8 7 7 7 9 8 8 7 7 7 7 7 5 5
5 8 6 4 3 3 5 6 6 8 10 9 8 6 3 4 5 6 7 7 7 7 7 6 6 6 7 6 7 7 7 8 9 9 9 8 7 7 6 7 7 7 7 6 7 6 5 4 3
4 5 5 4 3 4 6 6 8 11 11 6 7 6 5 6 7 8 8 7 7 7 7 7 6 6 7 7 6 7 6 6 7 8 9 8 6 6 6 5 6 6 5 5 5 4 4 4 4
6 5 5 5 6 7 8 11 11 12 11 9 7 7 8 8 9 9 8 7 7 7 8 8 7 7 7 7 6 6 7 7 7 8 9 8 6 6 6 5 5 5 5 5 5 5 5 4 4
3 4 6 6 7 7 9 12 11 13 9 8 8 8 8 9 9 9 8 8 8 8 7 8 9 8 7 7 7 7 7 7 8 8 9 9 8 7 6 6 5 5 5 5 5 5 4 4 4
4 5 6 6 6 5 7 13 13 12 9 10 10 9 9 10 9 10 9 9 9 8 7 7 9 9 9 9 9 8 8 9 8 8 10 10 9 8 7 6 5 5 6 6 5 5 4 4 4
3 5 7 4 4 4 6 14 9 6 7 10 10 10 10 10 11 10 9 9 8 8 8 7 7 9 10 9 9 8 9 9 8 9 9 11 10 10 8 7 6 7 6 6 5 5 4 4 4
4 6 7 6 4 5 8 13 10 6 9 11 11 11 11 11 10 10 9 9 8 8 8 8 8 9 9 9 9 8 8 9 9 9 9 10 11 11 9 7 7 8 6 6 5 5 5 4 4
5 6 7 8 4 7 12 16 14 11 12 13 12 12 11 11 10 9 9 8 8 8 8 7 8 9 9 8 7 7 7 8 8 8 9 10 11 11 9 7 8 8 6 6 6 6 5 4 4
6 7 9 9 7 8 13 17 17 13 13 14 13 12 12 12 11 9 8 8 8 8 8 8 7 8 8 7 8 8 8 8 8 8 10 11 11 11 10 8 8 8 7 7 7 6 6 4 3
7 9 9 7 6 7 12 18 16 13 13 13 12 12 12 11 10 9 8 8 8 9 8 8 8 8 9 8 8 8 8 7 7 7 9 11 11 11 10 10 8 8 7 7 7 7 5 4 4
8 10 9 8 8 7 9 12 10 8 8 9 10 10 10 10 10 9 9 9 9 9 8 8 8 8 9 8 7 6 6 5 6 7 7 9 11 11 11 11 9 8 8 8 8 8 8 6 5
7 6 7 8 7 5 4 7 9 7 7 8 8 8 8 8 8 9 9 9 9 9 7 8 7 8 8 8 9 10 9 9 8 8 7 8 10 11 11 11 10 9 8 8 8 8 7 7 6
5 4 6 7 7 7 6 7 8 5 7 7 7 7 7 7 7 8 9 9 8 7 6 6 7 8 8 9 10 10 10 8 7 7 8 8 8 9 10 10 9 9 8 8 8 8 8 7 7
3 3 3 4 4 7 7 8 8 5 5 5 6 6 7 7 7 8 8 7 7 6 5 5 6 7 8 9 9 10 11 10 9 9 8 7 6 7 9 8 8 8 8 8 8 8 9 8 8
3 2 2 3 4 6 3 7 8 4 4 5 6 6 7 7 6 6 7 6 5 5 5 5 6 7 7 8 9 9 10 11 11 10 9 8 7 6 8 8 7 7 8 8 8 8 8 8 8
5 4 3 4 5 4 4 8 5 2 4 5 5 5 6 6 6 6 5 6 5 5 4 4 6 7 7 8 8 8 9 8 8 9 8 8 7 7 8 8 8 8 8 7 8 7 8 7 7
4 5 3 3 4 6 6 6 6 3 4 4 4 5 5 6 6 6 5 5 5 5 4 4 5 6 6 7 7 7 8 8 8 8 9 7 7 7 8 8 8 7 8 7 7 6 7 7 7
3 3 3 4 4 6 7 7 5 4 5 4 4 5 6 6 7 6 6 6 5 4 4 4 5 6 5 5 5 5 7 7 7 8 8 8 8 8 8 8 8 7 7 8 7 6 6 6 6
5 4 5 4 4 5 6 4 2 4 4 5 5 6 7 7 8 6 6 6 5 5 4 3 4 3 3 4 4 5 6 6 7 7 8 8 8 9 9 8 8 8 8 7 7 7 7 7 7
5 5 5 4 4 4 6 6 2 3 4 4 5 6 7 8 8 7 6 6 5 5 5 4 3 3 2 3 3 4 4 5 6 6 6 7 7 8 8 8 8 8 8 7 7 7 7 7 8
Wind_Direction
322 313 263 225 219 227 232 218 212 195 196 196 200 214 225 228 241 44 61 130 138 152 156 159 160 156 154 153 149 148 148 147 145 141 138 138 135 133 131 126 121 118 115 111 107 105 102 101 96
317 297 221 218 228 229 226 215 211 209 191 169 196 216 220 220 14 59 97 141 153 153 156 159 157 155 153 152 149 148 147 148 146 143 140 140 139 137 133 127 124 121 118 115 111 106 103 102 100
297 262 218 212 227 233 226 200 210 214 204 201 199 218 236 233 92 84 95 155 155 154 159 153 154 154 151 151 150 149 152 150 145 144 144 142 141 140 136 130 127 124 122 118 113 109 107 104 102
231 196 215 229 231 233 234 205 199 197 196 212 217 203 187 46 28 40 128 159 158 157 160 154 155 154 153 150 152 152 151 150 148 145 144 144 145 145 141 135 132 128 126 122 117 115 112 109 106
221 207 216 230 235 231 228 231 219 214 202 196 211 219 201 125 43 78 147 164 162 160 162 160 161 159 154 153 153 158 154 148 148 149 148 147 145 147 145 140 136 132 129 127 124 123 118 116 112
187 207 225 233 232 229 224 223 226 229 223 212 219 231 218 134 58 114 162 171 167 162 164 162 166 165 161 158 160 160 160 157 153 151 151 150 148 148 148 145 142 138 137 131 128 127 124 121 118
209 212 234 239 236 231 224 218 225 233 231 226 228 230 200 154 33 145 176 173 170 166 169 170 173 174 169 163 163 165 163 162 159 156 152 151 151 152 153 150 147 142 139 135 131 128 129 127 122
229 215 235 234 235 236 219 212 229 242 241 243 232 234 224 175 91 161 169 173 173 174 176 180 183 181 176 172 167 165 164 164 162 158 152 149 152 153 151 154 152 147 144 141 136 132 130 129 124
211 221 233 232 231 231 209 217 222 245 242 225 226 258 354 101 151 163 172 189 190 193 195 194 193 188 182 179 171 169 168 165 161 158 150 153 158 157 153 147 144 145 144 144 140 137 133 132 130
207 225 235 238 243 238 224 233 237 228 232 231 226 231 240 166 178 189 197 205 205 206 208 203 202 196 189 180 174 177 176 173 176 173 167 168 164 157 152 141 141 142 142 143 142 142 147 158 151
213 232 235 237 256 268 256 247 244 238 240 242 245 248 235 215 213 215 215 217 216 210 208 209 207 202 195 184 179 179 179 179 182 178 175 171 164 155 154 153 152 155 158 161 154 164 170 170 159
223 235 242 244 266 267 266 265 251 242 247 263 266 260 240 231 230 230 226 225 222 218 216 214 210 206 203 192 187 184 183 182 182 180 177 176 172 170 165 166 167 168 170 172 175 175 173 172 170
230 243 253 264 271 267 266 260 261 252 252 263 264 250 239 238 240 241 239 232 227 225 222 218 212 210 206 197 192 191 190 188 187 186 187 184 182 180 173 174 174 178 177 179 180 182 179 182 179
239 253 264 265 264 260 263 265 256 251 249 255 255 249 245 244 245 246 244 238 229 227 228 222 214 212 211 205 198 195 193 190 190 192 194 191 187 184 180 180 182 184 186 187 188 189 187 191 190
248 260 262 249 255 255 269 260 242 248 250 254 256 255 252 251 250 248 247 245 239 233 231 228 220 211 214 211 204 199 196 192 194 195 197 195 191 187 185 185 188 188 187 189 193 193 196 196 195
244 244 251 237 249 246 243 257 246 238 251 257 260 260 257 255 252 250 250 247 245 241 231 228 227 215 216 211 204 202 199 197 197 195 198 198 194 190 189 189 192 188 187 191 196 198 203 206 210
225 244 253 256 245 250 238 258 260 254 258 261 263 263 261 258 255 253 251 249 243 238 235 229 229 222 218 211 204 202 201 202 200 196 198 198 194 193 193 195 192 188 191 197 200 204 206 210 217
233 245 255 255 265 259 253 260 267 262 259 262 264 263 259 257 257 257 254 250 244 239 236 233 229 228 218 207 200 199 203 205 204 201 202 199 195 195 195 196 195 191 196 201 204 207 209 211 213
245 249 259 267 283 273 261 267 270 263 256 257 259 261 260 259 260 257 254 251 245 241 235 232 232 230 214 204 197 198 203 204 205 205 204 204 201 198 197 197 196 196 203 207 207 206 205 209 202
241 251 263 275 279 277 274 274 270 259 251 253 259 261 261 263 263 260 257 252 246 242 236 233 232 232 218 211 204 202 202 207 207 205 207 208 206 201 200 199 199 201 204 206 207 205 207 209 203
244 245 259 275 298 272 281 275 253 249 246 251 256 258 259 260 264 265 260 254 248 243 240 233 231 234 224 213 204 198 197 199 204 206 210 212 210 205 203 203 202 204 204 207 209 210 210 210 208
250 243 257 269 278 275 277 281 271 258 256 257 260 258 259 261 264 265 262 257 252 247 246 241 234 230 223 212 202 199 204 207 209 205 207 210 212 209 207 206 205 204 207 209 210 212 214 210 211
244 267 260 261 261 272 243 255 271 261 259 262 264 269 274 276 275 273 267 261 259 255 246 239 235 228 220 213 205 205 211 212 208 204 205 208 210 209 208 206 205 206 209 211 210 211 212 213 215
231 265 264 237 242 254 231 233 266 246 255 272 275 279 286 291 286 279 276 270 264 260 251 241 234 229 218 210 207 209 211 208 205 205 203 205 206 208 209 207 207 208 209 211 212 211 213 214 217
212 241 263 241 232 246 205 239 257 263 270 284 289 297 307 310 303 298 295 286 276 266 256 244 235 234 221 212 211 212 213 210 208 208 206 204 203 207 209 207 210 210 213 213 211 210 214 214 214
215 223 245 262 263 279 236 242 263 296 291 301 302 303 314 314 312 308 303 295 286 274 264 256 244 237 224 218 216 215 214 212 211 212 211 211 207 208 207 206 208 210 211 212 211 211 213 212 215
201 216 248 267 277 274 251 258 277 274 284 307 322 330 332 330 332 327 320 314 301 287 271 260 257 247 225 219 218 217 214 211 209 212 214 215 211 205 204 207 207 208 209 210 210 212 211 211 213
235 201 205 224 255 269 270 262 269 279 288 309 321 331 334 334 335 335 334 330 321 308 293 279 264 249 232 221 217 218 217 214 212 212 212 215 211 205 202 206 206 206 207 207 207 209 208 209 213
194 201 220 230 248 263 279 277 338 299 302 297 309 329 336 338 338 337 340 340 342 332 320 296 279 269 243 231 224 219 216 213 213 213 213 210 209 207 205 205 206 206 206 202 202 206 205 208 213
230 225 212 237 245 244 271 280 12 318 321 324 325 333 336 335 335 336 341 347 347 346 340 333 325 307 271 246 238 230 224 214 215 215 213 208 206 206 205 205 205 205 204 202 202 205 208 208 213
Height
1506 1507 1509 1511 1510 1505 1498 1496 1497 1499 1501 1503 1504 1504 1502 1502 1503 1508 1508 1506 1507 1509 1511 1513 1515 1517 1519 1520 1521 1522 1523 1524 1525 1526 1527 1528 1528 1529 1529 1530 1530 1530 1531 1531 1531 1531 1531 1531 1531
1506 1507 1510 1510 1504 1501 1495 1494 1497 1498 1501 1504 1505 1505 1504 1504 1506 1506 1505 1505 1507 1509 1511 1513 1515 1517 1518 1520 1521 1522 1523 1524 1525 1526 1527 1528 1529 1529 1529 1530 1530 1531 1531 1531 1531 1532 1532 1532 1532
1505 1507 1510 1505 1499 1493 1491 1494 1496 1500 1503 1504 1504 1505 1504 1505 1506 1505 1504 1505 1507 1509 1511 1512 1514 1516 1518 1519 1521 1522 1523 1524 1525 1526 1527 1528 1529 1529 1530 1530 1531 1531 1531 1532 1532 1532 1532 1532 1533
1506 1508 1508 1502 1494 1491 1492 1495 1498 1500 1503 1504 1504 1504 1505 1505 1505 1504 1504 1505 1507 1509 1510 1512 1513 1516 1517 1519 1520 1522 1523 1524 1525 1526 1527 1528 1528 1529 1530 1530 1531 1531 1531 1532 1532 1532 1532 1533 1533
1505 1506 1502 1497 1492 1492 1495 1498 1500 1499 1500 1502 1503 1502 1503 1504 1503 1503 1503 1505 1507 1508 1510 1511 1513 1515 1517 1518 1519 1521 1522 1523 1524 1525 1526 1527 1528 1529 1529 1530 1531 1531 1531 1532 1532 1532 1533 1533 1533
1505 1502 1497 1490 1488 1492 1496 1499 1500 1499 1499 1501 1502 1501 1502 1503 1502 1502 1503 1505 1507 1508 1509 1510 1512 1514 1516 1517 1519 1520 1521 1522 1524 1524 1525 1526 1527 1528 1529 1530 1530 1531 1531 1532 1532 1532 1533 1533 1534
1502 1499 1492 1488 1488 1490 1494 1498 1499 1497 1498 1500 1501 1501 1501 1502 1501 1501 1503 1504 1506 1507 1508 1510 1511 1513 1514 1516 1518 1519 1520 1522 1523 1524 1525 1525 1526 1527 1528 1529 1530 1530 1531 1532 1532 1532 1533 1533 1534
1500 1499 1493 1489 1488 1488 1495 1497 1498 1498 1497 1500 1501 1499 1499 1501 1500 1500 1502 1504 1505 1506 1507 1508 1510 1511 1513 1515 1516 1518 1519 1520 1521 1523 1524 1524 1525 1526 1527 1528 1529 1530 1531 1531 1532 1532 1533 1533 1534
1499 1498 1489 1486 1488 1490 1495 1496 1498 1498 1499 1499 1499 1499 1499 1498 1499 1500 1501 1502 1503 1504 1506 1507 1508 1510 1511 1513 1514 1516 1518 1519 1520 1521 1522 1523 1524 1525 1526 1527 1528 1529 1530 1531 1531 1532 1532 1533 1533
1498 1492 1485 1489 1492 1493 1495 1496 1497 1497 1496 1496 1497 1497 1497 1497 1497 1498 1499 1499 1500 1501 1503 1504 1506 1507 1509 1511 1512 1514 1515 1517 1518 1519 1520 1522 1523 1524 1525 1526 1527 1528 1529 1530 1531 1531 1532 1532 1533
1495 1490 1490 1494 1495 1496 1496 1495 1496 1495 1492 1493 1494 1495 1495 1495 1496 1496 1497 1497 1498 1499 1500 1501 1503 1504 1506 1508 1510 1511 1513 1514 1516 1517 1518 1519 1521 1522 1523 1524 1525 1526 1528 1529 1529 1530 1531 1532 1532
1495 1494 1495 1495 1496 1496 1496 1495 1494 1492 1491 1492 1493 1493 1493 1493 1493 1494 1494 1495 1495 1496 1497 1498 1500 1501 1503 1505 1507 1508 1510 1512 1513 1514 1516 1517 1518 1520 1521 1522 1524 1525 1526 1527 1528 1529 1530 1530 1531
1494 1493 1495 1495 1496 1495 1495 1493 1492 1489 1490 1490 1490 1490 1490 1490 1491 1491 1491 1492 1492 1493 1494 1495 1496 1498 1499 1501 1503 1505 1507 1509 1510 1512 1513 1514 1516 1517 1518 1520 1522 1523 1524 1525 1526 1527 1528 1529 1529
1494 1494 1494 1494 1494 1493 1493 1490 1490 1484 1487 1487 1487 1487 1487 1487 1487 1488 1488 1488 1488 1489 1490 1491 1493 1494 1496 1498 1500 1502 1503 1505 1507 1508 1510 1512 1513 1514 1515 1517 1519 1521 1522 1523 1524 1525 1526 1527 1527
1495 1493 1491 1491 1491 1491 1492 1485 1482 1482 1484 1484 1484 1483 1483 1484 1484 1484 1484 1484 1484 1485 1486 1487 1489 1490 1492 1494 1496 1498 1500 1501 1503 1505 1507 1508 1510 1511 1513 1514 1516 1518 1519 1521 1522 1523 1524 1524 1525
1492 1489 1485 1486 1488 1489 1492 1477 1476 1480 1481 1480 1480 1479 1479 1479 1479 1480 1480 1480 1480 1481 1482 1483 1484 1486 1487 1489 1492 1494 1496 1498 1500 1501 1503 1505 1507 1508 1510 1511 1513 1515 1516 1518 1519 1520 1521 1521 1522
1488 1484 1482 1483 1486 1487 1485 1475 1474 1477 1477 1476 1476 1475 1475 1474 1474 1475 1475 1476 1476 1477 1478 1479 1480 1481 1483 1485 1487 1490 1492 1494 1496 1497 1499 1501 1503 1504 1506 1508 1510 1511 1513 1514 1516 1517 1518 1518 1519
1484 1482 1482 1482 1483 1485 1480 1473 1471 1473 1474 1472 1471 1471 1470 1470 1470 1471 1471 1471 1472 1472 1473 1474 1475 1476 1478 1480 1482 1485 1487 1489 1491 1493 1495 1497 1499 1500 1502 1504 1506 1507 1509 1510 1512 1513 1514 1515 1516
1485 1484 1483 1482 1484 1483 1476 1469 1466 1468 1469 1468 1467 1466 1466 1465 1466 1466 1466 1466 1467 1467 1468 1469 1470 1471 1473 1474 1476 1479 1482 1484 1486 1488 1490 1492 1494 1496 1498 1500 1502 1503 1505 1506 1508 1509 1510 1511 1512
1487 1485 1482 1481 1483 1481 1474 1466 1461 1462 1462 1462 1462 1461 1461 1461 1461 1461 1461 1461 1461 1462 1462 1463 1465 1466 1468 1469 1471 1474 1477 1479 1481 1484 1486 1488 1490 1492 1494 1496 1497 1499 1501 1502 1504 1505 1506 1507 1509
1485 1483 1480 1481 1481 1479 1475 1459 1454 1455 1457 1458 1458 1457 1457 1457 1456 1456 1456 1456 1457 1457 1457 1458 1460 1461 1463 1464 1467 1470 1472 1474 1476 1478 1480 1483 1485 1487 1489 1491 1493 1495 1496 1498 1499 1501 1502 1503 1505
1480 1481 1483 1482 1481 1474 1476 1461 1448 1450 1451 1452 1453 1453 1452 1452 1452 1451 1451 1452 1452 1452 1452 1453 1454 1456 1457 1459 1461 1463 1465 1467 1470 1473 1475 1478 1480 1482 1484 1486 1488 1490 1492 1493 1495 1496 1498 1499 1500
1481 1482 1482 1481 1481 1479 1473 1471 1446 1448 1448 1447 1449 1449 1449 1449 1448 1447 1447 1447 1447 1448 1448 1448 1450 1451 1452 1454 1455 1458 1461 1463 1466 1468 1471 1473 1475 1477 1479 1481 1483 1485 1487 1489 1490 1492 1493 1494 1496
1483 1482 1481 1480 1479 1474 1465 1464 1444 1442 1443 1444 1445 1446 1446 1446 1445 1444 1443 1443 1443 1443 1443 1443 1445 1446 1447 1449 1451 1453 1456 1458 1460 1463 1465 1468 1470 1472 1474 1476 1478 1480 1482 1484 1485 1487 1488 1489 1491
1482 1479 1474 1471 1469 1458 1463 1460 1445 1441 1444 1445 1445 1445 1445 1444 1442 1441 1440 1439 1439 1439 1439 1439 1440 1441 1442 1444 1446 1448 1450 1453 1455 1458 1460 1462 1464 1466 1469 1471 1473 1475 1477 1479 1481 1482 1483 1484 1486
1480 1478 1473 1466 1457 1451 1461 1453 1440 1443 1445 1446 1445 1444 1443 1442 1440 1439 1437 1436 1435 1435 1435 1435 1436 1437 1438 1440 1441 1443 1446 1448 1450 1453 1455 1457 1459 1461 1464 1466 1468 1470 1472 1473 1475 1477 1478 1480 1481
1478 1476 1476 1474 1471 1464 1447 1445 1441 1443 1444 1444 1444 1443 1442 1440 1438 1437 1435 1433 1432 1432 1431 1432 1432 1433 1434 1435 1437 1439 1441 1443 1445 1447 1450 1452 1454 1457 1459 1461 1463 1465 1467 1468 1470 1471 1473 1474 1476
1478 1476 1478 1473 1464 1452 1441 1440 1436 1439 1440 1442 1443 1442 1441 1439 1437 1435 1433 1431 1430 1429 1429 1429 1429 1430 1430 1431 1433 1435 1437 1439 1441 1443 1445 1447 1449 1451 1453 1456 1458 1460 1461 1463 1465 1466 1468 1469 1470
1477 1478 1474 1469 1466 1456 1443 1436 1440 1441 1442 1443 1442 1442 1441 1439 1436 1434 1432 1430 1428 1427 1427 1427 1426 1426 1427 1428 1429 1431 1432 1434 1436 1438 1440 1442 1444 1446 1448 1450 1452 1454 1456 1458 1459 1461 1463 1464 1465
1473 1471 1471 1467 1464 1463 1454 1444 1444 1445 1444 1444 1443 1443 1441 1439 1436 1434 1432 1429 1428 1426 1425 1424 1424 1424 1424 1425 1426 1427 1428 1430 1431 1433 1435 1437 1439 1442 1444 1446 1447 1449 1451 1452 1454 1455 1457 1459 1460